AirNav   Pilot Hours Calculator
 
 769 users online  

W94 Camp Peary Landing Strip Airport
Williamsburg, Virginia, USA

GOING TO WILLIAMSBURG?


FAA INFORMATION EFFECTIVE 25 MARCH 2021

Location

FAA Identifier: W94
Lat/Long: 37-18-46.0594N 076-38-17.5821W
37-18.767657N 076-38.293035W
37.3127943,-76.6382172
(estimated)
Elevation: 40.8 ft. / 12 m (estimated)
Variation: 11W (2010)
From city: 3 miles NE of WILLIAMSBURG, VA
Time zone: UTC -4 (UTC -5 during Standard Time)
Zip code: 23188

Airport Operations

Airport use: Private use, THIS FLD IS DOD RESTRICTED.
Activation date: 07/1958
Control tower: no
ARTCC: WASHINGTON CENTER
FSS: LEESBURG FLIGHT SERVICE STATION
NOTAMs facility: DCA (NOTAM-D service available)
Attendance: MON-FRI 0800-1630
Wind indicator: yes
Segmented circle: no
Lights: SS-SR

Airport Communications

NORFOLK APPROACH: 125.7
NORFOLK DEPARTURE: 125.7
WX AWOS-3 at JGG (6 nm SW): 120.625 (757-220-8810)
WX ASOS at PHF (13 nm SE): PHONE 757-874-3682
WX AWOS-3 at FYJ (14 nm NW): 132.825 (804-785-2307)
WX AWOS-3 at W75 (20 nm NE): 118.45 (804-758-8592)
  • APCH/DEP SVC PRVDD BY ORF APCH ON 125.7/335.625.

Nearby radio navigation aids

VOR radial/distance  VOR name  Freq  Var
HCMr164/8.9HARCUM VORTAC108.8007W
HPWr098/22.8HOPEWELL VORTAC112.0006W
CCVr276/30.6CAPE CHARLES VORTAC112.2010W
ORFr327/32.8NORFOLK VORTAC116.9007W
RICr118/34.4RICHMOND VORTAC114.1009W

 
NDB name  Hdg/Dist  Freq  Var  ID
WAKEFIELD052/26.327411WAKQ .- -.- --.-

Airport Services

Airframe service: NONE
Powerplant service: NONE

Runway Information

Runway 5/23

Dimensions: 5018 x 151 ft. / 1529 x 46 m
FLD CLSD TO ALL CIV & MIL ACFT WO PRIOR APVL OF BASE COMDR.
Surface: asphalt
Runway edge lights: low intensity
RUNWAY 5  RUNWAY 23
Latitude: 37-18.448248N37-19.087063N
Longitude: 076-38.621737W076-37.964333W
Elevation: 40.8 ft.31.3 ft.
Traffic pattern: leftleft
Visual slope indicator: 4-light PAPI on left4-light PAPI on left
Touchdown point: yes, no lightsyes, no lights

Airport Ownership and Management from official FAA records

Ownership: U.S. Army
Owner: US ARMY AERONAUTICAL SVCS AGENCY
FT BELVOIR, VA 22060
Manager: DAVID J CROMLEY
AFETA-CAMP PEARY
WILLIAMSBURG, VA 23185
Phone 804-229-2121
COLONEL INFANTRY.

Additional Remarks

CAUTION: FLD RSTD, PPR BY WRITTEN REQ TO BASE COMDR, ATTN: AIR OPS. EXC WHEN OPR UNDER PRIOR PERMS AUTH, PILOTS SHOULD MAINT AT LEAST 3000 FT ABV THE ARPT ELEV WITHIN 5 NM.
FOR CD CTC NORFOLK APCH AT 757-464-0757.

Instrument Procedures

NOTE: All procedures below are presented as PDF files. If you need a reader for these files, you should download the free Adobe Reader.

NOT FOR NAVIGATION. Please procure official charts for flight.
FAA instrument procedures published for use from 25 March 2021 at 0901Z to 22 April 2021 at 0900z.

 
IAPs - Instrument Approach Procedures
RNAV (GPS) RWY 05   download (196KB)
RNAV (GPS) RWY 23   download (129KB)
VOR-A   download (123KB)
NOTE: Special Take-Off Minimums/Departure Procedures apply   download (140KB)

Other nearby airports with instrument procedures:

KJGG - Williamsburg-Jamestown Airport (6 nm SW)
KFAF - Felker Army Airfield (11 nm S)
KPHF - Newport News/Williamsburg International Airport (13 nm SE)
KFYJ - Middle Peninsula Regional Airport (14 nm NW)
KLFI - Langley Air Force Base (19 nm SE)
W75 - Hummel Field Airport (20 nm NE)
 
Loc | Ops | Rwys | IFR | FBO | Links
Com | Nav | Svcs | Stats | Notes
Area around W94 (Camp Peary Landing Strip Airport)
 
Road maps at: MapQuest Bing Google
 
Aerial photo
WARNING: Photo may not be current or correct
Aerial photo of W94 (Camp Peary Landing Strip Airport)
Photo by Glenn Woodell, of NASA Langley Research Center
Photo taken 10-Apr-2014
looking south.

Do you have a better or more recent aerial photo of Camp Peary Landing Strip Airport that you would like to share? If so, please send us your photo.

 
Sectional chart

 
Airport distance calculator
Flying to Camp Peary Landing Strip Airport? Find the distance to fly.

From to W94

Sunrise and sunset
Times for 20-Apr-2021
 Local
(UTC-4)
 Zulu
(UTC)
Morning civil twilight05:5909:59
Sunrise06:2610:26
Sunset19:4523:45
Evening civil twilight20:1200:12

Current date and time
Zulu (UTC)  20-Apr-2021 11:39:38
Local (UTC-4)  20-Apr-2021 07:39:38
 
METAR
KJGG 
6nm SW 
201115Z AUTO 00000KT 10SM CLR 09/09 A3005 RMK AO1
KFAF 
12nm S 
201056Z 22003KT 10SM FEW120 10/09 A3001 RMK AO2A SLP166 T01010093 $
KPHF 
13nm SE 
201054Z 23003KT 7SM CLR 06/06 A3003 RMK AO2 SLP169 T00610061
KFYJ 
14nm NW 
201115Z AUTO 00000KT 10SM CLR 09/08 A3004 RMK AO1 T00850077
KW75 
20nm NE 
201115Z AUTO 00000KT 10SM CLR 08/08 A3002 RMK AO1 T00800080
KLFI 
20nm SE 
201056Z AUTO 23007KT 7SM CLR 09/09 A3001 RMK AO2 SLP169 T00920092 $
TAF
KFAF 
12nm S 
201000Z 2010/2116 VRB06KT 8000 BR SKC QNH2997INS BECMG 2012/2013 VRB06KT 9999 NSW SKC QNH2995INS BECMG 2017/2018 21012KT 9999 FEW250 QNH2982INS BECMG 2112/2113 20012G18KT 9999 FEW030 SCT080 QNH2968INS TX22/2020Z TN10/2010Z
KPHF 
13nm SE 
201007Z 2010/2106 00000KT 1 1/2SM MIFG SCT003 TEMPO 2010/2012 BKN003 FM201200 22008KT P6SM SKC FM201700 20012KT P6SM SKC FM202300 18008KT P6SM SKC
KLFI 
20nm SE 
200900Z 2009/2115 23006KT 4800 BR FEW025 QNH2999INS BECMG 2013/2014 20009KT 9999 NSW FEW250 QNH3003INS BECMG 2021/2022 18012KT 9999 SKC QNH2997INS BECMG 2111/2112 20009KT 9999 FEW030 SCT080 QNH2988INS TX22/2021Z TN08/2009Z
NOTAMs
Click for the latest NOTAMs
NOTAMs are issued by the DoD/FAA and will open in a separate window not controlled by AirNav.

 

 
 

Would you like to see your business listed on this page?

 If your business provides an interesting product or service to pilots, flight crews, aircraft, or users of the Camp Peary Landing Strip Airport, you should consider listing it here.  To start the listing process, click on the button below
 
Add a business
 

Other Pages about Camp Peary Landing Strip Airport

Update a link
 
Copyright © AirNav, LLC. All rights reserved. Privacy Policy  Contact